Location: Ballainvilliers
(48.6748°N, 2.3006°E)
Time: 16:54:59
(UTC+00:00)

Daily predictions for brighter satellites

Satellite Brightness Start Highest point End
(mag) Time Altitude Azimuth Time Altitude Azimuth Time Altitude Azimuth
Cosmos 1814 Rocket 4.1 18:23:43 10° NNW 18:29:08 78° ENE 18:34:28 10° SSE
DMSP B5D2-2 4.5 18:24:22 10° NNE 18:29:25 42° E 18:34:25 10° SSE
COSMOS 2455 4.0 18:25:34 10° NNW 18:30:41 27° NE 18:35:47 10° E
IRS-1C Rocket 4.1 18:25:57 10° SSE 18:31:09 67° ENE 18:36:23 10° N
SKYMED 2 4.4 18:27:41 10° N 18:31:59 59° WNW 18:36:14 10° SSW
Cosmos 1745 Rocket 4.3 18:26:33 10° SSW 18:32:54 79° W 18:39:15 10° N
SeaSat 1 2.6 18:28:19 10° SE 18:33:09 59° NE 18:38:01 10° NNW
Cosmos 2344 4.1 18:26:41 10° SW 18:34:02 65° NW 18:42:07 10° NE
Okean O Rocket 3.3 18:30:48 10° SSW 18:34:55 38° W 18:39:02 10° NNW
ARGOS 3.6 18:29:46 10° S 18:35:06 70° WSW 18:40:28 10° NNW
ERBS 3.5 18:37:46 10° S 18:40:26 23° SE 18:43:07 10° ENE
Cosmos 1707 4.0 18:37:22 10° NNE 18:40:30 22° ENE 18:43:36 10° ESE
Cosmos 1743 2.8 18:37:57 10° S 18:41:47 87° W 18:45:41 10° N
Cosmos 1975 3.7 18:39:58 10° SSE 18:43:22 28° E 18:46:48 10° NNE
CSL-04 Debris 4.2 18:38:37 10° SSE 18:43:56 61° ENE 18:49:15 10° N
DMSP B5D1-3 4.5 18:39:17 10° NNE 18:44:22 64° ESE 18:49:24 10° S
OBJECT-B 1.8 18:42:22 10° SE 18:45:07 27° ENE 18:47:54 10° N
Cosmos 1943 Rocket 3.7 18:42:37 10° SE 18:45:12 13° E 18:47:49 10° ENE
Cosmos 968 Rocket 4.0 18:40:40 10° SSE 18:45:25 36° ESE 18:50:12 10° NE
USA 215 3.9 18:40:01 10° SE 18:46:26 55° SW 18:52:53 10° WNW
Cosmos 1536 4.0 18:43:12 10° SSW 18:47:08 49° WNW 18:51:04 10° N
USA 305 2.8 18:43:21 10° SW 18:47:34 79° SSE 18:51:49 10° ENE
Lacrosse 5 rocket 3.0 18:43:56 10° NW 18:47:58 29° N 18:51:54 10° ENE
Geosat 4.3 18:44:40 10° NNE 18:49:43 74° WNW 18:54:43 10° SW
ISS -1.7 18:50:13 10° SSE 18:51:44 13° SE 18:52:24 12° ESE
CZ-2C R/B 3.2 18:46:54 10° N 18:52:17 65° WNW 18:57:46 10° SSW
Cosmos 921 Rocket 3.0 18:48:23 10° NNW 18:52:46 67° ENE 18:57:01 10° SSE
Cosmos 1461 4.4 18:51:54 10° NNW 18:55:10 22° NE 18:57:53 12° E
SL-4 R/B 2.9 18:53:46 10° W 18:56:54 34° SW 19:00:10 10° SSE
USA 307 2.8 18:54:02 10° WSW 18:58:15 84° SSE 19:02:30 10° ENE
Meteor 2-9 Rocket 4.3 18:57:37 10° S 19:03:21 64° E 19:09:11 10° NNE
Cosmos 1842 3.2 18:59:49 10° N 19:03:48 83° E 19:07:44 10° S
USA 281 4.2 18:59:51 10° NE 19:04:54 23° E 19:09:54 10° SSE
Cosmos 1689 Rocket 4.3 19:06:24 10° NE 19:06:35 11° ENE 19:06:35 11° ENE
SJ-6B 3.2 19:04:29 10° SE 19:08:26 47° ENE 19:12:25 10° N
Cosmos 1400 Rocket 4.0 19:07:16 13° SE 19:09:57 23° E 19:13:13 10° NE
Cosmos 2221 Rocket 3.7 19:06:48 10° NNW 19:11:16 81° W 19:15:40 10° S
Cosmos 1378 Rocket 3.6 19:08:07 10° N 19:12:27 56° ENE 19:16:47 10° SSE
ATLAS CENTAUR R/B 3.0 19:10:37 10° NNW 19:14:27 26° NE 19:17:09 16° E
USA 306 3.0 19:10:47 10° WSW 19:15:01 77° NNW 19:19:11 10° ENE
YAOGAN 1 4.2 19:11:59 10° SSW 19:15:58 36° W 19:19:59 10° NNW
Cosmos 1674 3.8 19:14:02 10° NNE 19:17:06 24° ENE 19:18:01 22° E
USA 308 3.0 19:12:58 10° WSW 19:17:12 79° NNW 19:21:18 11° ENE
COSMOS 2406 4.1 19:16:52 10° NW 19:22:26 50° WSW 19:27:57 10° S
Inspiration4 3.4 19:19:54 10° SSW 19:23:45 33° SE 19:25:24 24° E
Okean-O 3.6 19:20:40 10° S 19:24:56 48° W 19:29:15 10° NNW
Cosmos 1833 Rocket 4.0 19:20:48 10° NW 19:26:00 40° WSW 19:31:11 10° S
Cosmos 1674 Rocket 3.5 19:22:17 10° N 19:26:42 87° E 19:31:03 10° S
Meteor 2-12 Rocket 4.4 19:22:26 10° S 19:28:32 74° E 19:34:39 10° NNE
CZ-4B R/B 2.1 19:26:13 10° N 19:29:09 49° WNW 19:32:05 10° SSW
Meteor 1-21 4.3 19:23:25 10° NNW 19:29:10 86° W 19:34:49 10° S
In-Cosmos 22 4.0 19:24:23 10° N 19:29:42 68° ENE 19:34:24 13° SSE
USA 186 1.6 19:30:09 18° S 19:31:57 66° W 19:34:47 10° NNW
Cosmos 2074 Rocket 3.9 19:25:56 10° S 19:32:07 71° E 19:38:23 10° NNE
Lacrosse 4 Rocket 2.0 19:30:55 10° SW 19:34:53 57° NW 19:38:54 10° NNE
Cosmos 1932 4.4 19:30:56 10° SSW 19:37:10 72° SE 19:43:23 10° NE
Cosmos 2082 Rocket 2.6 19:31:34 10° NNW 19:37:15 66° WSW 19:42:45 11° SSE
SPOT 3 Rocket 4.4 19:36:01 25° E 19:37:46 31° ENE 19:42:14 10° N
CSL-04 Rocket 4.4 19:35:40 10° S 19:40:50 54° W 19:46:09 10° NNW
Resurs 01 Rocket 2.3 19:40:22 31° ESE 19:41:35 37° ENE 19:45:39 10° N
Okean 2 3.6 19:38:18 10° NNW 19:42:22 69° W 19:46:19 11° S
Cosmos 1340 3.3 19:45:23 10° NNW 19:49:05 55° W 19:52:08 14° S
CZ-4 R/B 4.3 19:48:40 10° WSW 19:50:41 14° W 19:52:43 10° WNW
CSL-04 DEB 4.2 19:47:00 10° NNE 19:51:02 73° ESE 19:54:57 10° S
Helios 1A Rocket 2.8 19:49:40 27° SSE 19:51:50 89° ENE 19:55:58 10° NNW
Cosmos 1782 Rocket 3.9 19:52:43 40° ESE 19:53:19 43° E 19:57:33 10° NNE
Cosmos 1733 Rocket 4.4 19:49:15 10° SW 19:53:20 41° WNW 19:57:27 10° N
Ariane Rocket 2.9 19:53:08 29° SSE 19:55:42 71° ENE 20:00:47 10° N
Terra 3.9 19:56:16 13° NE 19:56:16 13° NE 19:58:23 10° NNE
Cosmos 2278 Rocket 3.4 19:54:57 10° SW 20:00:22 44° NW 20:05:49 10° NNE
IRS-1A Rocket 4.3 19:57:01 23° SSE 20:00:49 85° ENE 20:06:44 10° NNW
Cosmos 2297 3.7 19:57:34 10° S 20:03:08 60° ESE 20:08:46 10° NE
Cosmos 1626 2.4 20:04:10 10° N 20:07:24 51° NE 20:07:24 51° NE
Cosmos 1346 Rocket 2.8 20:04:27 10° N 20:08:26 61° ENE 20:08:28 61° E
Resurs 1-3 3.7 20:06:22 30° S 20:08:28 72° WSW 20:12:51 10° NNW
Cosmos 2369 Rocket 3.7 20:12:19 20° ENE 20:12:19 20° ENE 20:14:27 10° NE
Cosmos 2184 Rocket 4.4 20:03:51 10° SSW 20:10:11 67° WNW 20:16:30 10° N
SeaSat 1 4.4 20:06:59 10° SSW 20:10:58 24° WSW 20:14:58 10° NW
MOS 1 4.4 20:08:02 23° S 20:11:41 78° WSW 20:17:24 10° NNW
Cosmos 1503 Rocket 3.8 20:08:21 10° SSW 20:13:35 78° ESE 20:18:47 10° NNE
ERBS 2.9 20:13:02 10° WSW 20:16:16 52° NNW 20:16:21 51° NNW
Cosmos 1707 4.4 20:12:53 10° NNW 20:16:24 33° W 20:19:15 14° SSW
SPOT 1/Viking Rocket 3.7 20:15:41 48° ESE 20:16:29 54° ENE 20:21:31 10° N
Landsat 7 3.7 20:16:04 53° SSE 20:17:10 79° ENE 20:21:57 10° NNW
OBJECT-B 3.4 20:14:51 10° SW 20:17:13 19° W 20:19:37 10° NW
COSMOS 2455 2.8 20:11:16 10° NW 20:17:21 84° WSW 20:19:34 42° SSE
Cosmos 962 Rocket 4.4 20:16:03 32° SSE 20:18:57 63° E 20:25:03 10° NNE
IGS 5A 3.4 20:19:04 63° S 20:19:41 82° WSW 20:23:52 10° NNW
Cosmos 1975 Rocket 2.9 20:17:18 10° N 20:21:43 83° E 20:22:05 74° SE
Cosmos 1238 Rocket 4.3 20:16:09 10° SSW 20:22:41 67° WNW 20:28:47 10° N
Cosmos 1354 Rocket 3.9 20:19:56 10° SSW 20:25:12 82° ESE 20:30:28 10° NNE
USA 305 3.8 20:23:41 10° W 20:27:44 43° N 20:28:50 35° NNE
Cosmos 2154 Rocket 4.3 20:21:35 10° SSW 20:27:54 70° WNW 20:34:17 10° N
Lacrosse 5 rocket 1.9 20:23:25 10° NW 20:27:54 53° NNE 20:28:07 52° NE
Cosmos 1943 Rocket 2.0 20:22:27 10° SSW 20:28:01 81° ESE 20:33:39 10° NNE
ISS -1.3 20:24:41 10° SW 20:25:27 16° SW 20:25:27 16° SW
Cosmos 1461 3.2 20:30:35 10° NW 20:34:13 59° W 20:34:13 59° W
EO 1 Delta rocket 4.4 20:36:54 38° SSW 20:38:25 56° W 20:43:18 10° NNW
USA 307 3.8 20:34:26 10° W 20:38:29 43° N 20:39:08 40° NNE
Cosmos 1025 Rocket 3.3 20:36:40 10° N 20:40:23 62° N 20:40:23 62° N
SPOT 5 3.7 20:43:03 42° NE 20:43:03 42° NE 20:47:42 10° N
Meteor 1-12 Rocket 4.4 20:40:16 23° SSW 20:44:14 79° WNW 20:50:17 10° N
Cosmos 1400 Rocket 4.4 20:42:44 12° SW 20:46:14 34° WNW 20:50:01 10° N
CARTOSAT-1 4.4 20:51:06 43° NNE 20:51:06 43° NNE 20:54:09 10° N
USA 281 3.2 20:43:27 10° NNE 20:50:03 81° WNW 20:56:37 10° SSW
Spot 2 Rocket 3.7 20:51:41 60° NE 20:51:41 60° NE 20:56:08 10° N
Cosmos 1674 4.5 20:49:24 10° NNW 20:52:33 27° W 20:52:47 26° W
SL-8 Rocket 3.8 20:52:19 65° SSE 20:53:15 79° E 20:59:34 10° NNE
Meteor 1-24 Rocket 3.7 20:48:07 10° N 20:52:51 59° NE 20:52:51 59° NE
ATLAS CENTAUR R/B 1.9 20:49:08 10° NW 20:53:17 65° W 20:53:17 65° W
USA 306 4.0 20:51:19 10° WNW 20:55:14 40° N 20:55:14 40° N
Meteor 1-15 Rocket 4.0 20:56:17 83° S 20:56:32 90° SE 21:02:09 10° NNE
Cosmos 1727 Rocket 4.1 20:50:57 10° N 20:57:07 56° ENE 20:57:07 56° ENE
USA 308 4.0 20:53:31 10° WNW 20:57:22 40° NNW 20:57:22 40° NNW
Inspiration4 4.3 20:59:28 10° WSW 21:01:35 28° WSW 21:01:35 28° WSW
Cosmos 2341 Rocket 4.2 21:03:33 40° SSW 21:05:55 71° W 21:12:18 10° N
Cosmos 158 Rocket 4.3 21:05:57 10° NNW 21:10:10 60° NNW 21:10:10 60° NNW
Meteor 2-5 Rocket 3.7 21:07:58 10° NNW 21:13:17 74° WNW 21:13:17 74° WNW
SPOT 3 Rocket 4.4 21:16:41 42° WSW 21:17:02 43° W 21:21:56 10° NNW
Resurs 01 Rocket 3.3 21:17:56 26° W 21:18:09 27° W 21:21:55 10° NW
SJ 16-02 3.6 21:27:03 18° NNE 21:27:03 18° NNE 21:28:15 10° NNE
Cosmos 1833 4.5 21:21:24 10° NNW 21:26:13 65° NW 21:26:13 65° NW
Cosmos 2297 Rocket 4.0 21:24:08 10° N 21:28:14 21° NE 21:28:14 21° NE
Cosmos 2218 Rocket 4.1 21:29:22 69° W 21:29:36 70° WNW 21:35:48 10° N
ARIANE 5 R/B 4.2 21:32:27 32° NNW 21:32:27 32° NNW 21:34:54 10° NNW
Cosmos 2366 rocket 4.1 21:31:14 68° W 21:31:24 69° WNW 21:37:33 10° N
Terra 3.1 21:35:09 36° N 21:35:09 36° N 21:37:59 10° NNW
ERS-1 Rocket 3.9 21:39:20 45° NNW 21:39:20 45° NNW 21:42:54 10° NNW
Cosmos 2227 Rocket 4.0 21:44:54 10° N 21:48:50 21° NE 21:48:50 21° NE
Cosmos 2369 Rocket 3.0 21:54:02 48° NNW 21:54:02 48° NNW 21:58:52 10° NNE
Lacrosse 5 rocket 4.2 22:02:50 10° WNW 22:03:42 15° WNW 22:03:42 15° WNW
Cosmos 1943 Rocket 4.3 22:08:04 10° W 22:12:27 23° NW 22:16:53 10° N
CENTAUR R/B 4.0 22:53:55 30° NE 22:53:55 30° NE 22:57:27 10° NE
SJ 16-02 4.4 23:03:59 12° NW 23:03:59 12° NW 23:04:58 10° NNW
Cosmos 2297 Rocket 4.0 23:07:32 10° NNW 23:10:01 27° NNW 23:10:01 27° NNW
Cosmos 2227 Rocket 4.1 23:28:23 10° NNW 23:30:37 25° NNW 23:30:37 25° NNW
